Tracking 30922 objects as of 2-Jul-2025
HD Live streaming from Space Station
objects crossing your sky now

COSMOS 839 DEB

Track COSMOS 839 DEB now!
10-day predictions


NORAD ID: 10622
Int'l Code: 1976-067AW
Perigee: 945.9 km
Apogee: 2,135.0 km
Inclination: 65.9 °
Period: 116.7 minutes
Semi major axis: 7911 km
RCS: 0.1409 m2 (medium)
Launch date: July 8, 1976
Source: Commonwealth of Independent States (former USSR) (CIS)
Launch site: PLESETSK MISSILE AND SPACE COMPLEX (PKMTR)

Note: This is SATELLITE DEBRIS
Your satellite tracking list
ARIANE 5 DEB (SPELTRA)
Track 1 satellite(s)




NASA's NSSDC Master Catalog

Two Line Element Set (TLE):
1 10622U 76067AW  25182.13167759 -.00000068  00000-0 -36376-4 0  9999
2 10622  65.9019 197.3244 0751499 266.0381 160.9784 12.33725734205609
Source of the keplerian elements: AFSPC